Home   Weather   Hialeah   Past weeks
Flag for USA

Past Weather in Hialeah, Florida, USA — Yesterday and Last 2 Weeks

Now
76 °F

Clear.


Feels Like: 77 °F
Forecast: 88 / 73 °F
Wind: 5 mph from East

Location: Opa Locka Airport

Current Time: May 22, 2019 at 4:56:03 am

Latest Report: May 22, 2019 at 3:53 am


Visibility: 10 mi

Pressure: 29.99 "Hg

Humidity: 74%

Dew Point: 67 °F

Location of HialeahLocation

Past Weather in Hialeah — Graph

°F

Hialeah Temperature Yesterday

Maximum temperature yesterday: 89 °F (at 2:53 pm)
Minimum temperature yesterday: 73 °F (at 6:53 am)
Average temperature yesterday: 82 °F

High & Low Weather Summary for the Past Weeks

 TemperatureHumidityPressure
High92 °F (May 13, 4:33 pm)97% (May 7, 5:53 am)30.07 "Hg (May 7, 5:53 am)
Low71 °F (May 17, 6:53 am)45% (May 21, 3:53 pm)29.87 "Hg (May 13, 3:04 pm)
Average81 °F72%29.98 "Hg
* Reported May 7 2:53 am — May 22 2:53 am, Hialeah. Weather by CustomWeather, © 2019

Note: Actual official high and low records may vary slightly from our data, if they occured in-between our weather recording intervals... More about our weather records

Advertising

Hialeah Weather History for the Previous 24 Hours

Scroll right to see more
 ConditionsComfort  
Time TempWeatherWind HumidityBarometerVisibility
2:53 am
Wed, May 22
76 °FClear.5 mph74%30.00 "Hg10 mi
1:53 am76 °FClear.3 mph74%30.01 "Hg10 mi
12:53 am78 °FClear.7 mph69%30.02 "Hg10 mi
11:53 pm
Tue, May 21
78 °FClear.6 mph69%30.03 "Hg10 mi
10:53 pm79 °FClear.8 mph67%30.01 "Hg10 mi
9:53 pm80 °FClear.9 mph67%29.98 "Hg10 mi
8:53 pm80 °FClear.14 mph69%29.97 "Hg10 mi
7:53 pm81 °FSunny.12 mph67%29.96 "Hg10 mi
6:53 pm84 °FSunny.13 mph57%29.94 "Hg10 mi
5:53 pm86 °FSunny.10 mph53%29.93 "Hg10 mi
4:53 pm88 °FSunny.13 mph46%29.93 "Hg10 mi
3:53 pm88 °FSunny.15 mph45%29.94 "Hg10 mi
2:53 pm89 °FSunny.13 mph50%29.95 "Hg10 mi
1:53 pm88 °FPassing clouds.12 mph50%29.97 "Hg10 mi
12:53 pm87 °FScattered clouds.7 mph55%29.98 "Hg10 mi
11:53 am87 °FScattered clouds.9 mph57%29.98 "Hg10 mi
10:53 am87 °FPassing clouds.5 mph57%29.99 "Hg10 mi
9:53 am85 °FSunny.8 mph57%29.98 "Hg10 mi
8:53 am83 °FSunny.6 mph63%29.97 "Hg10 mi
7:53 am80 °FSunny.No wind76%29.97 "Hg10 mi
6:53 am73 °FSunny.No wind90%29.95 "Hg10 mi
5:53 am76 °FClear.No wind82%29.93 "Hg10 mi
4:53 am75 °FPassing clouds.No wind82%29.93 "Hg10 mi
Weather by CustomWeather, © 2019

See weather overview